Time,TemperatureF,DewpointF,PressureIn,WindDirection,WindDirectionDegrees,WindSpeedMPH,WindSpeedGustMPH,Humidity,HourlyPrecipIn,Conditions,Clouds,dailyrainin,SoftwareType,DateUTC
2013-07-11 00:01:00,74.8,72.6,30.02,SE,130,0.0,30.0,93,0.00,,---,0.00,VWS V12.08,2013-07-11 04:01:00,
2013-07-11 00:02:00,74.8,72.6,30.02,SE,130,0.0,30.0,93,0.00,,---,0.00,VWS V12.08,2013-07-11 04:02:00,
2013-07-11 00:03:00,74.8,72.6,30.02,SE,130,0.0,30.0,93,0.00,,---,0.00,VWS V12.08,2013-07-11 04:03:00,
2013-07-11 00:08:00,74.7,72.6,30.02,SE,130,0.0,30.0,93,0.00,,---,0.00,VWS V12.08,2013-07-11 04:08:00,
2013-07-11 00:13:00,74.6,72.4,30.01,SE,130,0.0,30.0,93,0.00,,---,0.00,VWS V12.08,2013-07-11 04:13:00,
2013-07-11 00:18:00,74.4,72.2,30.01,SE,130,0.0,30.0,93,0.00,,---,0.00,VWS V12.08,2013-07-11 04:18:00,
2013-07-11 00:23:00,74.5,72.3,30.01,SE,130,0.0,30.0,93,0.00,,---,0.00,VWS V12.08,2013-07-11 04:23:00,
2013-07-11 00:28:00,74.4,72.2,30.01,SE,130,0.0,30.0,93,0.00,,---,0.00,VWS V12.08,2013-07-11 04:28:00,
2013-07-11 00:33:00,74.3,72.2,30.01,SE,130,0.0,30.0,93,0.00,,---,0.00,VWS V12.08,2013-07-11 04:33:00,
2013-07-11 00:38:00,74.1,71.9,30.01,SE,130,0.0,30.0,93,0.00,,---,0.00,VWS V12.08,2013-07-11 04:38:00,
2013-07-11 00:43:00,74.0,71.8,30.01,SE,130,0.0,30.0,93,0.00,,---,0.00,VWS V12.08,2013-07-11 04:43:00,
2013-07-11 00:48:00,73.8,71.7,30.01,SE,130,0.0,30.0,93,0.00,,---,0.00,VWS V12.08,2013-07-11 04:48:00,
2013-07-11 00:53:00,73.7,71.6,30.00,SE,130,0.0,30.0,93,0.00,,---,0.00,VWS V12.08,2013-07-11 04:53:00,
2013-07-11 00:58:00,73.6,71.8,30.01,SE,130,0.0,30.0,94,0.00,,---,0.00,VWS V12.08,2013-07-11 04:58:00,
2013-07-11 01:03:00,73.6,71.8,30.01,SE,130,0.0,30.0,94,0.00,,---,0.00,VWS V12.08,2013-07-11 05:03:00,
2013-07-11 01:08:00,73.5,71.7,30.00,SE,130,0.0,30.0,94,0.00,,---,0.00,VWS V12.08,2013-07-11 05:08:00,
2013-07-11 01:13:00,73.5,71.7,30.00,SE,130,0.0,30.0,94,0.00,,---,0.00,VWS V12.08,2013-07-11 05:13:00,
2013-07-11 01:18:00,73.5,71.7,30.01,SE,130,0.0,30.0,94,0.00,,---,0.00,VWS V12.08,2013-07-11 05:18:00,
2013-07-11 01:23:00,73.6,71.8,30.00,SE,130,0.0,30.0,94,0.00,,---,0.00,VWS V12.08,2013-07-11 05:23:00,
2013-07-11 01:28:00,73.7,71.9,30.00,SE,130,0.0,30.0,94,0.00,,---,0.00,VWS V12.08,2013-07-11 05:28:00,
2013-07-11 01:33:00,73.6,71.8,30.00,SE,130,0.0,30.0,94,0.00,,---,0.00,VWS V12.08,2013-07-11 05:33:00,
2013-07-11 01:38:00,73.6,71.8,30.00,SE,130,0.0,30.0,94,0.00,,---,0.00,VWS V12.08,2013-07-11 05:38:00,
2013-07-11 01:43:00,73.6,71.8,30.00,SE,130,0.0,30.0,94,0.00,,---,0.00,VWS V12.08,2013-07-11 05:43:00,
2013-07-11 01:48:00,73.6,72.1,30.00,SE,130,0.0,30.0,95,0.00,,---,0.00,VWS V12.08,2013-07-11 05:48:00,
2013-07-11 01:53:00,73.6,72.1,29.99,SE,130,0.0,30.0,95,0.00,,---,0.00,VWS V12.08,2013-07-11 05:53:00,
2013-07-11 01:58:00,73.5,71.7,29.99,SE,130,0.0,30.0,94,0.00,,---,0.00,VWS V12.08,2013-07-11 05:58:00,
2013-07-11 02:03:00,73.4,71.6,29.99,SE,130,0.0,30.0,94,0.00,,---,0.00,VWS V12.08,2013-07-11 06:03:00,
2013-07-11 02:08:00,73.4,71.9,29.99,SE,130,0.0,30.0,95,0.00,,---,0.00,VWS V12.08,2013-07-11 06:08:00,
2013-07-11 02:13:00,73.3,71.8,29.99,SE,130,0.0,30.0,95,0.00,,---,0.00,VWS V12.08,2013-07-11 06:13:00,
2013-07-11 02:18:00,73.3,71.8,29.99,SE,130,0.0,30.0,95,0.00,,---,0.00,VWS V12.08,2013-07-11 06:18:00,
2013-07-11 02:23:00,73.3,71.8,29.99,SE,130,0.0,30.0,95,0.00,,---,0.00,VWS V12.08,2013-07-11 06:23:00,
2013-07-11 02:28:00,73.2,71.4,29.98,SE,130,0.0,30.0,94,0.00,,---,0.00,VWS V12.08,2013-07-11 06:28:00,
2013-07-11 02:33:00,73.1,71.6,29.98,SE,130,0.0,30.0,95,0.00,,---,0.00,VWS V12.08,2013-07-11 06:33:00,
2013-07-11 02:38:00,73.1,71.6,29.98,SE,130,0.0,30.0,95,0.00,,---,0.00,VWS V12.08,2013-07-11 06:38:00,
2013-07-11 02:43:00,73.1,71.6,29.98,SE,130,0.0,30.0,95,0.00,,---,0.00,VWS V12.08,2013-07-11 06:43:00,
2013-07-11 02:48:00,73.0,71.5,29.98,SE,130,0.0,30.0,95,0.00,,---,0.00,VWS V12.08,2013-07-11 06:48:00,
2013-07-11 02:53:00,73.0,71.5,29.98,SE,130,0.0,30.0,95,0.00,,---,0.00,VWS V12.08,2013-07-11 06:53:00,
2013-07-11 02:58:00,73.1,71.6,29.98,SE,130,0.0,30.0,95,0.00,,---,0.00,VWS V12.08,2013-07-11 06:58:00,
2013-07-11 03:03:00,73.1,71.6,29.98,SE,130,0.0,30.0,95,0.00,,---,0.00,VWS V12.08,2013-07-11 07:03:00,
2013-07-11 03:08:00,73.0,71.5,29.98,SE,130,0.0,30.0,95,0.00,,---,0.00,VWS V12.08,2013-07-11 07:08:00,
2013-07-11 03:13:00,72.9,71.4,29.98,SE,130,0.0,30.0,95,0.00,,---,0.00,VWS V12.08,2013-07-11 07:13:00,
2013-07-11 03:18:00,72.8,71.3,29.98,SE,130,0.0,30.0,95,0.00,,---,0.00,VWS V12.08,2013-07-11 07:18:00,
2013-07-11 03:23:00,72.6,71.1,29.98,SE,130,0.0,30.0,95,0.00,,---,0.00,VWS V12.08,2013-07-11 07:23:00,
2013-07-11 03:28:00,72.4,70.9,29.98,SE,130,0.0,30.0,95,0.00,,---,0.00,VWS V12.08,2013-07-11 07:28:00,
2013-07-11 03:33:00,72.3,70.8,29.98,SE,130,0.0,30.0,95,0.00,,---,0.00,VWS V12.08,2013-07-11 07:33:00,
2013-07-11 03:38:00,72.2,70.7,29.98,SE,130,0.0,30.0,95,0.00,,---,0.00,VWS V12.08,2013-07-11 07:38:00,